Location: Newark
(59.4564°N, 26.6917°E)
Time: 19:58:16
(UTC+00:00)

SR - Pass Details

Date: 22 November 2019
Orbit: 573 x 882 km, 66.7° (Epoch: 06 December)

Event Time Altitude Azimuth Distance (km) Brightness Sun altitude
Rises 13:04:36 0° 214° (SW) 3,268 ? 1.9°
Reaches altitude 10° 13:06:57 10° 212° (SSW) 2,385 ? 1.7°
Maximum altitude 13:12:26 65° 132° (SE) 928 ? 1.2°
Drops below altitude 10° 13:18:17 10° 51° (NE) 2,535 ? 0.7°
Sets 13:20:50 0° 49° (NE) 3,490 ? 0.4°
Enters shadow 13:20:54 - 49° (NE) 3,515 ? 0.4°
